DW1832 Weather Reports


time (UTC)temp
C
wind
direction
speed
KPH
gust
KPH
rain 1hr
cm
rain 24hr
cm
rain mn
cm
humidity
%
barometer
mb
20260503192802 25 203 3.2 9.7 0.00 0.00 0.00 53 1011.2
20260503191302 25 158 3.2 6.4 0.00 0.00 0.00 51 1011.5
20260503185802 24 180 4.8 4.8 0.00 0.00 0.00 52 1011.5
20260503184302 23 180 1.6 8.0 0.00 0.00 0.00 54 1011.9
20260503182802 23 225 6.4 6.4 0.00 0.00 0.00 56 1011.9
20260503175802 24 158 3.2 6.4 0.00 0.00 0.00 53 1012.2
20260503174302 23 90 0.0 3.2 0.00 0.00 0.00 56 1012.2
20260503172802 21 225 0.0 4.8 0.00 0.00 0.00 62 1012.2
20260503171302 21 203 1.6 4.8 0.00 0.00 0.00 60 1012.2
20260503131302 9 90 0.0 0.0 0.00 0.00 0.00 85 1012.5
20260503110302 10 180 0.0 0.0 0.00 0.00 0.00 85 1012.9
20260503080801 12 135 0.0 0.0 0.00 0.00 0.00 85 1013.2
20260503072305 12 158 0.0 0.0 0.00 0.00 0.00 85 1013.2
20260503070802 12 158 0.0 0.0 0.00 0.00 0.00 85 1013.2
20260503054302 14 113 0.0 0.0 0.00 0.00 0.00 85 1012.9
20260503052802 14 113 0.0 0.0 0.00 0.00 0.00 85 1012.9
20260503051302 15 113 0.0 0.0 0.00 0.00 0.00 83 1012.9
20260503045802 15 158 0.0 0.0 0.00 0.00 0.00 83 1012.9
20260503044302 15 135 0.0 0.0 0.00 0.00 0.00 82 1012.5
20260503041301 16 180 0.0 0.0 0.00 0.00 0.00 74 1012.2
20260503035802 17 135 0.0 0.0 0.00 0.00 0.00 72 1011.9
20260503032802 18 225 0.0 0.0 0.00 0.00 0.00 66 1011.5
20260503031303 19 68 0.0 0.0 0.00 0.00 0.00 65 1011.5
20260503024301 21 180 0.0 1.6 0.00 0.00 0.00 60 1011.2
20260503021301 21 203 3.2 4.8 0.00 0.00 0.00 56 1011.2
20260503015802 22 203 1.6 6.4 0.00 0.00 0.00 56 1011.2
20260503014302 23 225 1.6 3.2 0.00 0.00 0.00 53 1011.2
20260503012802 23 225 3.2 4.8 0.00 0.00 0.00 51 1011.2
20260503011302 24 203 3.2 3.2 0.00 0.00 0.00 51 1011.2
20260503005801 23 113 3.2 6.4 0.00 0.00 0.00 52 1011.2
20260503004302 24 248 1.6 4.8 0.00 0.00 0.00 52 1011.2
20260503002802 25 225 4.8 4.8 0.00 0.00 0.00 51 1011.2
20260503001302 23 203 3.2 6.4 0.00 0.00 0.00 53 1011.5
20260502235802 25 0 3.2 4.8 0.00 0.00 0.00 53 1011.5
20260502234801 24 158 4.8 4.8 0.00 0.00 0.00 53 1011.5
20260502233302 23 158 3.2 4.8 0.00 0.00 0.00 54 1011.5
20260502231802 25 248 3.2 6.4 0.00 0.00 0.00 53 1011.9
20260502224802 24 315 6.4 6.4 0.00 0.00 0.00 53 1012.2
20260502223303 24 203 3.2 6.4 0.00 0.00 0.00 52 1012.5
20260502221803 23 270 3.2 8.0 0.00 0.00 0.00 56 1012.5
20260502220302 23 180 3.2 6.4 0.00 0.00 0.00 57 1012.9
20260502214802 22 203 3.2 4.8 0.00 0.00 0.00 57 1012.9
20260502211802 22 203 3.2 6.4 0.00 0.00 0.00 60 1013.2
20260502204801 21 248 1.6 6.4 0.00 0.00 0.00 60 1013.5
20260502203302 21 293 6.4 6.4 0.00 0.00 0.00 60 1013.5
20260502201802 20 180 3.2 4.8 0.00 0.00 0.00 63 1013.5
20260502200302 20 270 4.8 4.8 0.00 0.00 0.00 63 1013.9
20260502194802 21 23 3.2 6.4 0.00 0.00 0.00 60 1013.9